Wind_Speed
4 4 4 4 5 6 6 5 5 4 4 2 2 2 2 2 3 3 2 2 2 1 1 1 1 1 1 1 2 1 2 2 2 2 3 3 3 3 3 3 3 3 4 5 6 7 8 8 8
4 4 4 5 6 6 6 5 4 5 4 3 3 3 3 3 3 4 3 3 3 2 1 1 1 1 1 1 2 2 2 2 2 2 3 3 2 3 3 3 3 4 4 5 6 6 7 8 8
5 4 4 5 6 6 6 5 5 5 4 4 4 3 3 4 4 4 4 4 4 3 2 2 2 2 2 2 2 2 2 2 2 3 3 3 3 3 3 4 4 5 4 4 4 5 6 7 7
4 4 5 5 6 5 5 5 5 4 4 4 4 4 4 4 5 5 5 5 4 4 3 3 3 3 3 3 3 3 3 3 3 3 3 4 4 4 3 3 4 4 3 3 3 4 5 6 7
3 4 5 6 5 5 5 4 4 5 5 4 4 4 4 4 4 5 5 5 5 5 5 4 4 4 4 4 4 4 4 4 4 5 5 5 5 5 4 4 3 3 3 3 3 3 4 5 6
4 4 5 6 5 5 4 4 5 5 4 4 4 4 4 5 4 5 5 5 5 5 5 5 5 5 5 4 4 5 5 5 6 6 6 6 6 5 4 4 3 3 3 3 4 4 4 5 6
4 3 4 5 4 4 3 3 4 5 5 5 5 5 5 5 5 5 5 5 5 5 6 6 5 5 5 5 5 5 5 6 6 6 6 6 5 5 4 4 4 4 5 5 5 5 5 5 6
4 4 4 4 4 3 2 3 4 5 5 4 5 6 5 5 5 5 5 5 6 6 6 6 6 6 6 6 6 6 6 6 6 6 6 5 5 5 5 6 6 6 6 5 5 5 5 6 6
4 5 5 4 4 4 3 3 4 4 4 4 5 5 5 5 5 5 5 6 6 6 6 6 6 6 6 6 7 7 6 6 6 6 6 6 6 6 6 6 7 6 6 6 6 5 6 6 7
5 5 5 5 4 4 3 4 4 4 4 4 4 5 5 5 5 5 5 6 6 6 6 6 6 6 7 7 7 7 6 6 6 6 6 6 6 6 6 6 6 6 6 7 7 7 7 7 7
5 5 5 4 4 5 4 4 4 5 4 4 4 4 5 5 5 5 5 5 5 6 6 6 7 7 7 7 6 6 6 6 5 5 6 5 5 6 6 6 6 7 8 8 8 8 8 8 7
6 5 5 4 4 5 5 5 5 5 5 4 4 5 5 5 6 6 6 6 6 6 6 6 6 6 6 5 5 6 6 6 5 5 5 5 5 6 6 7 7 8 8 8 8 9 8 9 8
6 6 5 5 4 5 5 5 5 5 5 5 5 5 5 6 6 6 7 7 7 6 6 6 6 6 6 6 6 6 6 6 5 5 6 5 5 6 6 7 7 7 8 8 8 9 9 9 9
6 6 5 5 5 5 5 5 6 6 6 6 6 6 6 6 6 7 7 8 7 8 7 7 6 6 6 6 6 6 5 5 5 6 6 6 6 7 7 7 7 7 7 8 9 9 9 10 10
7 6 6 6 6 6 6 6 6 6 6 7 6 6 6 6 7 7 8 8 8 8 8 8 7 7 6 6 6 6 6 6 6 6 6 6 8 8 8 8 8 8 8 8 9 9 9 10 10
8 8 7 7 7 7 6 6 6 7 7 7 7 7 7 8 8 9 9 8 8 8 8 8 8 8 7 7 7 7 7 7 7 6 7 7 8 8 8 8 8 8 9 9 9 9 9 9 9
9 8 7 7 7 7 7 7 7 7 8 8 9 9 9 9 9 9 9 9 9 9 9 9 9 9 8 8 8 8 8 8 8 8 8 8 8 8 9 9 9 9 9 9 9 9 9 10 10
9 8 8 8 7 8 8 8 8 8 9 9 9 10 10 10 10 10 10 10 10 11 10 10 9 9 10 10 10 10 9 9 9 9 9 8 8 9 9 9 9 9 9 10 10 10 10 11 11
10 10 9 9 9 9 9 9 9 9 10 10 10 10 11 11 11 11 11 11 11 11 11 11 11 11 11 10 10 10 10 10 10 10 9 9 9 9 9 9 9 9 10 10 10 11 11 11 11
11 11 10 10 10 10 10 10 10 10 11 10 10 10 10 11 12 12 12 12 12 12 12 12 12 12 12 11 11 11 11 11 11 11 11 10 10 10 10 10 10 10 10 10 11 11 11 11 11
12 12 11 11 11 12 12 11 11 11 12 11 10 10 10 11 11 12 12 13 13 14 13 13 13 13 13 13 12 12 11 12 12 12 11 11 11 11 11 11 11 11 12 12 11 11 11 11 11
13 12 13 13 13 13 13 13 11 12 12 11 11 12 12 13 13 13 13 13 14 14 14 14 14 14 14 13 13 13 13 13 13 13 12 12 12 12 12 12 12 12 13 13 13 13 13 13 12
14 14 14 14 14 14 14 15 13 13 12 12 13 13 13 14 14 14 14 14 14 15 15 15 15 15 15 15 15 15 15 15 15 14 14 13 13 13 13 13 13 13 13 13 13 13 13 13 13
15 15 16 16 17 17 15 16 13 13 13 14 14 14 14 15 15 16 15 15 16 16 15 15 16 16 17 17 17 16 16 16 16 15 15 14 14 14 13 13 13 14 14 14 13 13 14 14 14
17 17 17 18 18 18 17 18 15 14 14 15 16 15 16 16 16 16 16 16 16 17 17 17 18 18 18 18 17 17 17 17 17 16 15 15 15 15 15 14 14 15 15 14 14 14 14 14 14
18 18 18 19 20 20 19 20 17 17 16 16 17 16 17 17 17 17 18 18 17 18 18 19 19 19 19 19 18 18 18 18 18 18 18 17 16 16 16 16 15 15 16 16 16 15 15 15 15
18 18 19 21 22 23 22 21 20 19 18 17 17 17 17 17 18 18 18 18 18 19 19 20 20 21 21 22 21 20 20 20 20 19 19 20 18 17 17 17 17 17 17 17 16 16 16 16 15
19 19 20 22 23 24 24 23 21 20 19 19 19 18 18 18 18 18 19 19 19 20 21 21 22 23 23 23 23 22 22 22 22 21 21 20 20 18 18 19 19 18 19 18 17 17 16 16 17
20 21 22 23 24 25 25 24 21 20 20 20 19 19 19 19 20 20 20 21 21 21 22 22 23 23 23 23 24 23 23 23 23 22 22 22 22 20 20 20 20 20 19 19 18 18 18 18 18
21 21 22 23 24 25 26 25 22 23 22 21 21 21 21 21 21 22 22 22 22 22 22 23 23 23 23 23 24 24 24 25 25 24 24 24 23 22 21 21 20 20 20 20 19 19 19 19 19
Wind_Direction
222 222 219 217 216 215 214 210 200 199 198 209 223 211 212 207 208 206 200 198 199 189 181 177 189 199 226 229 227 236 236 248 254 270 278 282 282 278 281 283 280 279 260 253 254 254 253 251 250
226 227 228 230 228 223 223 216 214 213 209 219 233 230 226 223 223 220 214 213 213 213 200 194 216 227 250 239 232 233 242 249 268 280 279 284 292 285 289 288 282 284 283 267 261 263 260 255 250
231 230 234 236 234 230 228 220 220 219 216 227 236 237 231 225 224 222 223 224 222 221 222 233 246 251 255 250 249 254 251 263 275 283 286 277 294 306 298 289 289 287 285 282 274 268 264 255 255
235 230 233 238 236 234 228 222 228 233 227 230 229 228 232 227 225 224 227 226 230 236 239 244 251 248 251 254 260 261 262 270 278 283 291 287 295 309 310 309 301 295 293 291 284 276 269 261 257
241 235 235 237 240 246 252 246 244 240 237 235 230 230 234 229 229 230 233 235 237 238 243 246 250 251 254 256 258 264 269 273 280 285 290 290 296 298 296 298 305 315 311 298 287 285 280 269 267
240 236 237 240 245 250 251 245 248 245 237 240 240 236 235 232 231 231 236 239 239 242 245 244 246 247 252 254 258 266 269 275 280 284 287 289 288 286 284 289 295 304 307 308 298 296 301 296 278
247 246 243 243 249 256 252 249 247 249 249 247 246 242 237 235 236 237 240 242 242 244 248 248 247 249 253 257 261 267 270 273 279 281 285 288 283 278 271 279 282 291 296 296 294 294 295 296 290
250 254 251 250 252 256 259 254 250 247 247 248 252 252 246 241 241 242 242 245 248 249 251 250 252 254 254 261 268 270 271 274 278 278 280 283 279 275 272 275 278 286 289 291 291 290 293 294 294
257 252 256 264 260 256 256 252 250 253 252 245 252 254 246 242 240 245 249 252 254 252 249 250 254 257 259 263 269 273 274 276 276 275 275 276 277 274 275 278 277 279 285 289 288 287 293 293 295
263 260 266 266 264 263 255 245 242 252 256 251 247 249 245 245 241 247 254 258 258 257 255 255 255 255 261 267 271 273 276 277 276 273 274 276 274 273 275 276 275 274 279 286 285 289 290 288 293
266 265 268 265 265 259 251 249 242 250 246 246 245 247 248 245 249 255 259 261 259 253 253 256 257 258 262 269 274 273 275 276 273 273 274 274 275 274 274 271 274 277 280 284 288 289 287 284 286
266 267 266 263 267 261 259 258 252 252 252 250 249 246 249 252 254 254 257 255 256 252 249 252 256 261 262 265 269 273 270 271 270 274 280 277 278 276 274 274 275 279 281 282 282 285 283 285 287
262 264 263 262 260 265 269 261 260 258 251 250 249 251 252 254 257 258 259 256 253 251 251 253 260 263 260 263 270 274 272 267 264 268 274 276 279 280 278 279 280 282 284 284 281 281 282 285 286
258 258 255 257 261 263 267 265 259 255 249 248 251 256 256 260 263 266 264 260 257 255 251 249 254 261 259 261 265 270 272 260 256 264 272 279 281 282 283 281 280 283 283 282 283 284 283 284 287
255 256 261 258 258 261 266 267 265 259 253 250 252 260 264 264 263 265 265 264 257 257 256 255 255 256 257 261 262 266 269 262 257 265 273 280 281 278 278 278 279 282 283 285 285 285 282 283 285
254 251 256 259 258 258 259 261 265 262 259 260 259 264 268 268 266 267 267 266 262 259 261 263 262 260 259 260 262 263 266 265 263 268 274 282 283 281 279 280 285 286 286 285 282 282 282 283 286
254 253 255 257 258 256 260 266 267 263 258 263 262 264 269 265 263 266 268 267 264 262 262 263 263 263 261 262 263 262 264 266 267 271 276 281 283 285 283 284 287 287 288 284 281 283 286 288 289
258 260 260 259 260 259 263 264 264 265 262 263 262 265 267 263 261 264 265 264 264 264 262 262 263 263 262 262 264 265 264 264 267 271 276 280 282 284 283 282 284 283 282 281 283 285 288 289 288
257 260 262 266 267 267 267 267 266 267 264 262 263 266 262 262 264 265 266 265 263 265 263 260 260 259 260 259 262 265 265 262 266 271 274 273 275 280 283 285 281 282 279 281 282 286 288 287 286
259 261 264 266 271 270 269 270 269 267 266 264 260 259 262 265 265 265 265 265 263 264 262 258 257 258 256 257 260 263 264 264 267 270 271 274 274 275 282 284 285 288 286 285 286 289 289 288 287
259 262 264 269 270 271 270 269 267 267 266 265 263 262 265 268 268 268 269 265 261 262 259 257 256 257 258 259 262 261 263 265 266 268 269 271 273 277 281 284 287 290 291 293 294 292 291 290 288
262 265 267 270 273 274 272 270 267 271 267 265 265 265 266 268 267 268 269 266 262 258 256 256 255 255 256 257 258 261 262 262 261 261 263 265 270 275 280 284 287 289 292 295 297 294 292 290 290
261 263 264 266 269 270 270 271 269 270 269 267 267 266 264 264 266 268 268 266 262 260 257 256 254 253 255 258 259 260 261 262 260 258 259 264 268 272 277 283 287 288 291 293 294 294 293 291 291
260 261 264 266 267 269 269 272 272 273 271 268 269 269 267 265 265 265 265 264 261 258 258 258 255 254 256 259 260 261 260 260 259 261 261 263 266 270 275 281 285 287 289 291 292 292 291 290 291
259 261 264 266 268 271 272 272 274 273 272 268 268 268 269 267 266 264 263 262 259 257 258 258 257 256 256 256 258 260 258 259 259 260 262 264 266 269 273 277 282 285 287 288 289 290 289 289 289
263 262 263 266 269 271 272 273 276 275 274 271 270 269 269 266 264 265 264 262 258 257 256 256 257 257 256 255 256 258 258 260 260 260 262 265 265 266 269 274 278 282 285 286 286 286 287 287 288
262 261 264 266 268 269 270 272 274 274 273 271 270 269 268 266 263 262 261 260 259 258 257 256 258 259 256 255 255 256 259 260 261 261 261 263 264 264 268 273 277 281 284 285 284 284 285 286 287
261 261 264 265 268 269 270 271 272 274 271 270 269 267 267 268 267 265 263 262 262 263 260 258 259 258 256 254 255 256 257 258 259 260 259 261 263 267 270 272 274 279 282 282 282 283 283 285 286
262 262 264 267 268 269 270 270 274 274 272 271 269 267 266 266 266 266 264 262 262 262 263 262 260 260 259 257 256 257 257 257 258 259 259 260 263 266 268 272 273 276 278 279 279 282 283 284 285
262 261 263 266 268 268 269 270 270 271 270 268 266 263 262 262 262 262 262 261 259 259 261 260 261 261 260 259 258 257 257 256 256 257 258 260 263 264 267 270 270 273 274 276 278 280 283 283 283
Height
5867 5867 5868 5870 5870 5870 5870 5871 5871 5871 5872 5871 5871 5872 5873 5874 5875 5878 5876 5875 5875 5875 5875 5875 5875 5875 5876 5876 5876 5876 5876 5876 5876 5876 5876 5876 5876 5876 5875 5875 5875 5874 5874 5874 5874 5875 5875 5875 5875
5867 5867 5869 5869 5869 5869 5870 5870 5870 5871 5871 5871 5871 5872 5873 5873 5874 5874 5874 5874 5875 5875 5875 5875 5875 5875 5875 5875 5876 5876 5876 5876 5876 5876 5876 5876 5876 5875 5875 5875 5874 5874 5874 5874 5874 5874 5874 5874 5874
5866 5867 5868 5868 5868 5868 5869 5869 5869 5869 5870 5871 5871 5872 5872 5873 5873 5873 5873 5874 5874 5874 5875 5875 5875 5875 5875 5875 5875 5876 5876 5876 5876 5876 5875 5875 5875 5875 5874 5874 5874 5873 5873 5873 5873 5873 5873 5873 5873
5866 5867 5868 5868 5867 5868 5868 5869 5869 5869 5869 5870 5870 5871 5871 5872 5872 5872 5872 5873 5873 5874 5874 5874 5874 5874 5875 5875 5875 5875 5875 5875 5875 5875 5875 5875 5874 5874 5874 5873 5873 5873 5873 5873 5872 5872 5872 5872 5872
5866 5867 5867 5866 5866 5867 5867 5867 5868 5868 5868 5869 5870 5870 5870 5871 5871 5871 5871 5872 5872 5873 5873 5873 5874 5874 5874 5874 5874 5875 5875 5875 5875 5874 5874 5874 5873 5873 5873 5873 5872 5872 5872 5872 5872 5872 5871 5871 5871
5866 5866 5866 5865 5866 5866 5866 5866 5866 5867 5868 5868 5869 5869 5869 5870 5870 5870 5870 5871 5871 5871 5872 5872 5873 5873 5873 5873 5874 5874 5874 5874 5874 5873 5873 5873 5872 5872 5872 5872 5872 5872 5871 5871 5871 5871 5870 5870 5869
5865 5864 5864 5864 5864 5865 5865 5865 5865 5866 5866 5867 5867 5868 5868 5869 5869 5869 5869 5870 5870 5870 5871 5871 5871 5872 5872 5872 5873 5873 5873 5873 5872 5872 5872 5872 5871 5871 5871 5871 5871 5871 5870 5870 5870 5870 5869 5868 5868
5863 5864 5863 5863 5863 5864 5864 5864 5864 5865 5865 5866 5866 5866 5867 5868 5868 5868 5868 5868 5869 5869 5869 5870 5870 5870 5871 5871 5871 5871 5871 5871 5871 5871 5871 5870 5870 5870 5870 5870 5870 5869 5869 5869 5869 5869 5868 5867 5866
5862 5864 5862 5862 5862 5863 5863 5863 5863 5863 5864 5864 5865 5865 5866 5866 5866 5867 5867 5867 5868 5868 5868 5869 5869 5869 5869 5870 5870 5870 5870 5869 5869 5869 5869 5869 5869 5869 5869 5868 5868 5868 5868 5868 5867 5867 5866 5866 5865
5861 5861 5861 5862 5861 5861 5862 5862 5862 5862 5863 5863 5863 5863 5864 5865 5865 5866 5866 5866 5866 5866 5867 5867 5867 5868 5868 5868 5868 5868 5868 5868 5868 5868 5868 5867 5867 5867 5867 5867 5867 5866 5866 5866 5866 5865 5865 5864 5863
5860 5860 5860 5860 5860 5860 5860 5860 5861 5861 5861 5862 5862 5862 5863 5863 5864 5864 5865 5865 5865 5865 5865 5865 5866 5866 5867 5867 5867 5867 5867 5867 5866 5866 5866 5866 5866 5866 5866 5866 5865 5865 5865 5864 5864 5863 5863 5862 5862
5859 5859 5858 5858 5858 5858 5859 5859 5859 5860 5860 5861 5860 5861 5861 5862 5862 5862 5863 5863 5864 5864 5864 5864 5864 5864 5865 5865 5865 5865 5865 5865 5865 5865 5865 5864 5864 5864 5864 5864 5864 5863 5863 5862 5862 5861 5861 5860 5860
5857 5857 5857 5857 5857 5857 5857 5857 5858 5858 5859 5859 5859 5859 5860 5860 5860 5860 5861 5861 5862 5862 5862 5863 5863 5863 5863 5863 5863 5863 5863 5863 5863 5863 5863 5863 5863 5863 5862 5862 5862 5861 5861 5860 5860 5859 5858 5858 5857
5856 5856 5856 5856 5856 5856 5856 5856 5856 5856 5857 5857 5857 5858 5858 5858 5858 5859 5859 5859 5860 5860 5860 5861 5861 5861 5861 5862 5862 5862 5862 5862 5862 5862 5862 5861 5861 5861 5861 5860 5860 5859 5859 5858 5858 5857 5856 5856 5855
5854 5855 5855 5854 5854 5854 5855 5855 5855 5855 5855 5855 5856 5856 5856 5856 5857 5857 5857 5857 5857 5858 5858 5858 5859 5859 5860 5860 5860 5860 5860 5860 5860 5860 5860 5859 5859 5859 5858 5858 5858 5857 5857 5856 5855 5854 5854 5853 5852
5853 5853 5853 5853 5852 5852 5854 5854 5853 5853 5853 5853 5854 5854 5854 5854 5855 5855 5854 5855 5855 5855 5856 5856 5857 5857 5858 5858 5858 5858 5858 5858 5858 5858 5858 5857 5857 5856 5856 5856 5855 5855 5854 5853 5853 5852 5851 5851 5850
5851 5851 5851 5851 5851 5850 5851 5851 5851 5851 5851 5851 5851 5852 5852 5852 5852 5852 5852 5852 5853 5853 5853 5854 5854 5855 5855 5856 5856 5856 5856 5856 5856 5856 5856 5856 5855 5854 5854 5853 5853 5852 5852 5851 5850 5849 5849 5848 5847
5849 5848 5848 5849 5849 5849 5849 5849 5849 5848 5848 5848 5849 5849 5849 5849 5849 5849 5850 5850 5850 5850 5851 5851 5852 5852 5852 5853 5853 5854 5854 5854 5854 5854 5854 5853 5853 5852 5852 5851 5851 5850 5850 5849 5848 5847 5846 5846 5845
5846 5846 5846 5846 5846 5846 5846 5846 5846 5846 5846 5846 5846 5846 5846 5846 5846 5846 5846 5847 5847 5848 5848 5848 5849 5849 5850 5850 5850 5851 5851 5851 5851 5851 5851 5851 5850 5850 5850 5849 5848 5848 5847 5846 5845 5844 5844 5843 5842
5843 5843 5844 5844 5843 5843 5843 5844 5843 5843 5843 5843 5843 5843 5843 5843 5843 5843 5843 5844 5844 5844 5845 5845 5846 5846 5847 5847 5847 5848 5848 5848 5848 5848 5848 5848 5848 5847 5847 5846 5845 5845 5844 5843 5843 5842 5841 5840 5839
5840 5841 5841 5841 5841 5840 5840 5841 5841 5840 5839 5840 5840 5840 5840 5840 5840 5840 5840 5840 5841 5841 5841 5842 5842 5843 5843 5844 5844 5845 5845 5845 5845 5845 5845 5845 5845 5844 5844 5843 5843 5842 5841 5840 5840 5839 5838 5837 5836
5837 5837 5837 5837 5837 5837 5837 5837 5837 5836 5836 5836 5836 5836 5836 5836 5836 5836 5836 5836 5837 5837 5837 5838 5839 5839 5840 5840 5841 5841 5841 5842 5842 5842 5842 5842 5842 5841 5841 5840 5840 5839 5838 5837 5836 5835 5834 5834 5832
5833 5833 5833 5833 5833 5833 5833 5832 5833 5832 5832 5832 5832 5832 5832 5832 5832 5832 5832 5832 5832 5833 5833 5834 5834 5835 5836 5837 5837 5837 5838 5838 5838 5838 5838 5838 5838 5838 5838 5837 5836 5836 5835 5834 5833 5832 5831 5830 5829
5829 5829 5829 5828 5828 5829 5828 5828 5829 5828 5828 5827 5827 5827 5827 5827 5827 5827 5827 5828 5828 5829 5829 5830 5830 5831 5832 5832 5833 5833 5834 5834 5834 5834 5834 5835 5834 5834 5834 5833 5833 5832 5831 5830 5829 5828 5827 5826 5825
5825 5825 5824 5824 5823 5823 5823 5823 5825 5824 5823 5823 5822 5822 5822 5822 5822 5822 5822 5823 5823 5824 5824 5825 5826 5826 5827 5828 5828 5829 5829 5829 5830 5830 5830 5830 5830 5830 5830 5830 5829 5828 5827 5826 5825 5824 5823 5822 5821
5819 5820 5820 5819 5818 5818 5818 5817 5820 5819 5818 5817 5817 5817 5817 5817 5817 5817 5817 5817 5818 5819 5819 5820 5820 5821 5822 5823 5823 5824 5824 5824 5824 5825 5826 5826 5826 5826 5826 5825 5825 5824 5823 5822 5821 5820 5819 5818 5816
5814 5814 5814 5814 5812 5812 5812 5812 5813 5812 5812 5811 5811 5811 5811 5811 5811 5811 5811 5812 5813 5813 5814 5814 5815 5816 5816 5817 5818 5818 5819 5819 5819 5820 5820 5820 5820 5820 5820 5820 5820 5819 5818 5817 5816 5815 5814 5813 5812
5808 5808 5808 5807 5806 5805 5805 5805 5806 5806 5806 5805 5805 5805 5805 5805 5805 5805 5805 5806 5806 5807 5808 5808 5809 5809 5810 5811 5811 5812 5812 5813 5813 5814 5814 5814 5814 5815 5815 5815 5815 5814 5813 5812 5811 5810 5809 5808 5807
5802 5802 5801 5801 5800 5799 5798 5802 5801 5800 5799 5799 5799 5798 5798 5799 5799 5799 5799 5799 5800 5800 5801 5801 5802 5803 5803 5804 5804 5805 5806 5806 5807 5807 5808 5808 5808 5809 5809 5809 5809 5808 5808 5807 5806 5805 5804 5803 5802
5795 5794 5794 5794 5793 5792 5792 5796 5795 5793 5793 5792 5792 5791 5791 5791 5792 5792 5792 5792 5793 5793 5794 5795 5795 5796 5797 5797 5798 5798 5799 5799 5800 5801 5801 5802 5802 5802 5802 5802 5802 5802 5802 5801 5801 5800 5799 5798 5796